EW2799 Weather Reports


Display with metric or nautical units.
time (UTC)temp
F
wind
direction
speed
MPH
gust
MPH
rain 1hr
in
rain 24hr
in
rain mn
in
humidity
%
barometer
mb
20260505194031 81 315 2.0 7.0 0.00 0.00 0.00 40 1016.3
20260505193534 81 0 2.0 7.0 0.00 0.00 0.00 41 1016.3
20260505193055 81 255 1.0 5.0 0.00 0.00 0.00 39 1016.4
20260505192530 80 234 1.0 7.0 0.00 0.00 0.00 42 1016.4
20260505192029 80 94 2.0 7.0 0.00 0.00 0.00 42 1016.6
20260505191542 80 316 2.0 9.0 0.00 0.00 0.00 41 1016.6
20260505191031 79 277 3.0 9.0 0.00 0.00 0.00 43 1016.7
20260505190529 80 240 4.0 9.0 0.00 0.00 0.00 42 1016.9
20260505190044 80 342 3.0 9.0 0.00 0.00 0.00 42 1017.0
20260505185530 81 175 2.0 9.0 0.00 0.00 0.00 41 1017.0
20260505185030 82 218 3.0 9.0 0.00 0.00 0.00 40 1017.0
20260505184542 81 203 1.0 6.0 0.00 0.00 0.00 43 1017.2
20260505184030 81 178 1.0 6.0 0.00 0.00 0.00 43 1017.2
20260505183530 80 0 2.0 13.0 0.00 0.00 0.00 45 1017.4
20260505183043 80 360 2.0 13.0 0.00 0.00 0.00 46 1017.6
20260505182529 79 311 1.0 12.0 0.00 0.00 0.00 48 1017.6
20260505182029 79 250 4.0 12.0 0.00 0.00 0.00 45 1017.7
20260505181540 79 176 1.0 4.0 0.00 0.00 0.00 45 1017.7
20260505181030 79 0 1.0 4.0 0.00 0.00 0.00 45 1017.7
20260505180529 78 128 1.0 12.0 0.00 0.00 0.00 50 1017.6
20260505180044 78 282 4.0 12.0 0.00 0.00 0.00 46 1017.7
20260505175530 79 263 2.0 9.0 0.00 0.00 0.00 48 1017.8
20260505175030 79 227 3.0 9.0 0.00 0.00 0.00 47 1017.9
20260505174542 78 198 3.0 13.0 0.00 0.00 0.00 48 1017.9
20260505174030 78 278 3.0 13.0 0.00 0.00 0.00 46 1017.8
20260505173529 79 194 4.0 13.0 0.00 0.00 0.00 48 1017.8
20260505173039 78 241 1.0 11.0 0.00 0.00 0.00 50 1017.8
20260505172529 78 217 3.0 12.0 0.00 0.00 0.00 48 1017.8
20260505172029 78 277 3.0 13.0 0.00 0.00 0.00 50 1018.0
20260505171547 78 223 5.0 13.0 0.00 0.00 0.00 49 1018.0
20260505171029 78 258 2.0 8.0 0.00 0.00 0.00 51 1018.0
20260505170529 78 246 3.0 9.0 0.00 0.00 0.00 50 1018.0
20260505170045 78 261 3.0 9.0 0.00 0.00 0.00 50 1017.9
20260505165529 78 0 1.0 4.0 0.00 0.00 0.00 52 1018.1
20260505165030 78 314 1.0 7.0 0.00 0.00 0.00 52 1018.1
20260505164544 77 76 1.0 7.0 0.00 0.00 0.00 54 1018.1
20260505164031 77 265 3.0 9.0 0.00 0.00 0.00 52 1018.2
20260505163530 77 0 2.0 9.0 0.00 0.00 0.00 53 1018.2
20260505163042 77 262 2.0 9.0 0.00 0.00 0.00 52 1018.3
20260505162530 77 138 4.0 8.0 0.00 0.00 0.00 52 1018.4
20260505162033 77 0 1.0 6.0 0.00 0.00 0.00 54 1018.6
20260505161539 76 352 2.0 8.0 0.00 0.00 0.00 54 1018.6
20260505161030 76 275 3.0 8.0 0.00 0.00 0.00 54 1018.5
20260505160531 76 232 3.0 7.0 0.00 0.00 0.00 52 1018.6
20260505153048 75 269 1.0 4.0 0.00 0.00 0.00 54 1018.7
20260505152530 74 73 1.0 4.0 0.00 0.00 0.00 56 1018.8
20260505152036 74 299 1.0 5.0 0.00 0.00 0.00 55 1018.8
20260505151544 73 246 2.0 8.0 0.00 0.00 0.00 57 1018.7
20260505151030 73 0 0.0 8.0 0.00 0.00 0.00 56 1018.7
20260505150530 73 183 1.0 6.0 0.00 0.00 0.00 58 1018.6
20260505140530 69 0 2.0 5.0 0.00 0.00 0.00 64 1018.4
20260505125031 63 0 0.0 0.0 0.00 0.00 0.00 79 1018.0
20260505124603 62 0 0.0 0.0 0.00 0.00 0.00 81 1018.2
20260505124030 61 0 0.0 0.0 0.00 0.00 0.00 84 1018.1
20260505123533 60 0 0.0 0.0 0.00 0.00 0.00 85 1018.0
20260505123112 60 0 0.0 0.0 0.00 0.00 0.00 86 1018.1
20260505122530 59 0 0.0 0.0 0.00 0.00 0.00 86 1018.0
20260505122031 59 0 0.0 1.0 0.00 0.00 0.00 88 1018.0
20260505121541 58 0 0.0 1.0 0.00 0.00 0.00 87 1017.9
20260505121035 57 0 0.0 0.0 0.00 0.00 0.00 88 1017.9
20260505120532 57 0 0.0 0.0 0.00 0.00 0.00 89 1017.7
20260505120055 56 0 0.0 0.0 0.00 0.00 0.00 91 1017.7
20260505115531 55 0 0.0 0.0 0.00 0.00 0.00 92 1017.6
20260505115031 54 0 0.0 1.0 0.00 0.00 0.00 92 1017.7
20260505114538 54 0 0.0 1.0 0.00 0.00 0.00 92 1017.6
20260505114031 53 0 0.0 0.0 0.00 0.00 0.00 92 1017.7
20260505113534 53 0 0.0 0.0 0.00 0.00 0.00 93 1017.6
20260505113045 52 0 0.0 0.0 0.00 0.00 0.00 93 1017.6
20260505112531 52 0 0.0 0.0 0.00 0.00 0.00 93 1017.6
20260505112033 52 0 0.0 1.0 0.00 0.00 0.00 93 1017.5
20260505111544 52 0 0.0 1.0 0.00 0.00 0.00 93 1017.4
20260505111033 52 0 0.0 1.0 0.00 0.00 0.00 92 1017.5
20260505110530 52 0 0.0 1.0 0.00 0.00 0.00 92 1017.3
20260505102029 53 0 0.0 0.0 0.00 0.00 0.00 90 1017.0
20260505101541 54 0 0.0 0.0 0.00 0.00 0.00 90 1016.8
20260505101029 54 0 0.0 0.0 0.00 0.00 0.00 89 1016.8
20260505100526 54 0 0.0 1.0 0.00 0.00 0.00 89 1016.9
20260505100044 55 0 0.0 1.0 0.00 0.00 0.00 89 1017.0
20260505095525 55 0 0.0 0.0 0.00 0.00 0.00 89 1017.0
20260505095025 55 0 0.0 0.0 0.00 0.00 0.00 88 1017.1
20260505094541 55 0 0.0 3.0 0.00 0.00 0.00 89 1017.1
20260505094025 55 0 0.0 3.0 0.00 0.00 0.00 88 1017.2
20260505093529 55 0 0.0 3.0 0.00 0.00 0.00 88 1017.3
20260505093038 55 0 0.0 3.0 0.00 0.00 0.00 88 1017.3
20260505092526 55 0 0.0 1.0 0.00 0.00 0.00 87 1017.3
20260505092026 56 0 0.0 1.0 0.00 0.00 0.00 87 1017.3
20260505091556 56 0 0.0 1.0 0.00 0.00 0.00 86 1017.6
20260505091033 56 0 0.0 1.0 0.00 0.00 0.00 86 1017.6
20260505090529 56 0 0.0 1.0 0.00 0.00 0.00 86 1017.7
20260505090039 56 0 0.0 2.0 0.00 0.00 0.00 85 1017.6
20260505085526 57 0 0.0 2.0 0.00 0.00 0.00 85 1017.6
20260505085026 57 0 0.0 2.0 0.00 0.00 0.00 84 1017.3
20260505084600 57 0 0.0 0.0 0.00 0.00 0.00 84 1017.3
20260505084025 58 0 0.0 0.0 0.00 0.00 0.00 83 1017.3
20260505083529 58 0 0.0 0.0 0.00 0.00 0.00 83 1017.4
20260505083059 58 0 0.0 0.0 0.00 0.00 0.00 82 1017.3
20260505082526 59 0 0.0 1.0 0.00 0.00 0.00 82 1017.2
20260505082026 59 0 0.0 4.0 0.00 0.00 0.00 82 1017.2
20260505081555 59 0 0.0 5.0 0.00 0.00 0.00 82 1017.2
20260505081026 59 0 0.0 7.0 0.00 0.00 0.00 82 1016.9
20260505080529 59 227 1.0 7.0 0.00 0.00 0.00 82 1017.0
20260505080050 59 0 0.0 5.0 0.00 0.00 0.00 82 1017.0
20260505075529 59 242 1.0 5.0 0.00 0.00 0.00 81 1017.1
20260505075029 59 0 1.0 4.0 0.00 0.00 0.00 81 1017.0
20260505074556 59 0 0.0 4.0 0.00 0.00 0.00 81 1017.1
20260505074031 59 248 0.0 3.0 0.00 0.00 0.00 81 1017.0
20260505073530 59 0 0.0 7.0 0.00 0.00 0.00 80 1017.1
20260505073052 59 0 1.0 7.0 0.00 0.00 0.00 80 1017.1
20260505072531 58 243 1.0 7.0 0.00 0.00 0.00 81 1017.1
20260505072031 58 178 0.0 7.0 0.00 0.00 0.00 81 1017.1
20260505071548 58 229 1.0 7.0 0.00 0.00 0.00 81 1017.2
20260505071031 58 0 0.0 5.0 0.00 0.00 0.00 80 1017.2
20260505070535 58 246 0.0 5.0 0.00 0.00 0.00 79 1017.1
20260505070051 58 207 0.0 5.0 0.00 0.00 0.00 78 1017.2
20260505065531 58 216 1.0 4.0 0.00 0.00 0.00 78 1017.1
20260505065031 58 0 1.0 5.0 0.00 0.00 0.00 77 1017.1
20260505064540 58 202 1.0 6.0 0.00 0.00 0.00 77 1017.1
20260505064033 58 241 1.0 7.0 0.00 0.00 0.00 77 1017.2
20260505063531 57 249 1.0 7.0 0.00 0.00 0.00 78 1017.3
20260505063051 57 218 2.0 7.0 0.00 0.00 0.00 78 1017.2
20260505062530 56 235 1.0 6.0 0.00 0.00 0.00 77 1017.3
20260505062030 55 0 1.0 5.0 0.00 0.00 0.00 78 1017.3
20260505061542 54 230 1.0 5.0 0.00 0.00 0.00 78 1017.4
20260505061031 53 214 1.0 5.0 0.00 0.00 0.00 79 1017.4
20260505060534 52 211 1.0 5.0 0.00 0.00 0.00 80 1017.5
20260505060057 52 157 0.0 5.0 0.00 0.00 0.00 80 1017.3
20260505055532 52 0 0.0 3.0 0.00 0.00 0.00 82 1017.3
20260505055031 52 0 0.0 4.0 0.00 0.00 0.00 82 1017.2
20260505054544 52 0 1.0 5.0 0.00 0.00 0.00 82 1017.3
20260505054035 52 188 1.0 5.0 0.00 0.00 0.00 83 1017.3
20260505053531 52 0 0.0 0.0 0.00 0.00 0.00 84 1017.1
20260505053043 52 0 0.0 0.0 0.00 0.00 0.00 83 1017.2
20260505052530 52 0 0.0 0.0 0.00 0.00 0.00 83 1017.3
20260505052032 52 0 0.0 0.0 0.00 0.00 0.00 83 1017.2
20260505051540 52 0 0.0 0.0 0.00 0.00 0.00 83 1017.2
20260505051031 53 0 0.0 0.0 0.00 0.00 0.00 83 1017.2
20260505050530 53 0 0.0 0.0 0.00 0.00 0.00 82 1017.2
20260505041550 55 0 0.0 0.0 0.00 0.00 0.00 77 1017.2
20260505041030 55 0 0.0 0.0 0.00 0.00 0.00 78 1017.3
20260505040531 55 0 0.0 0.0 0.00 0.00 0.00 78 1017.3
20260505040047 55 0 0.0 0.0 0.00 0.00 0.00 78 1017.3
20260505035534 55 0 0.0 0.0 0.00 0.00 0.00 78 1017.4
20260505035032 55 0 0.0 0.0 0.00 0.00 0.00 79 1017.5
20260505034543 55 0 0.0 0.0 0.00 0.00 0.00 79 1017.6
20260505034031 55 0 0.0 0.0 0.00 0.00 0.00 78 1017.5
20260505033531 55 0 0.0 0.0 0.00 0.00 0.00 78 1017.6
20260505033042 55 0 0.0 0.0 0.00 0.00 0.00 78 1017.6
20260505032529 56 0 0.0 0.0 0.00 0.00 0.00 77 1017.6
20260505032032 56 0 0.0 0.0 0.00 0.00 0.00 77 1017.6
20260505031543 56 0 0.0 0.0 0.00 0.00 0.00 77 1017.6
20260505031031 56 0 0.0 0.0 0.00 0.00 0.00 76 1017.7
20260505030535 56 0 0.0 0.0 0.00 0.00 0.00 76 1017.8
20260505030054 56 0 0.0 0.0 0.00 0.00 0.00 75 1017.6
20260505025531 57 0 0.0 0.0 0.00 0.00 0.00 75 1017.6
20260505025030 57 0 0.0 0.0 0.00 0.00 0.00 74 1017.6
20260505024538 57 0 0.0 0.0 0.00 0.00 0.00 73 1017.5
20260505024030 57 0 0.0 0.0 0.00 0.00 0.00 73 1017.5
20260505023530 58 0 0.0 0.0 0.00 0.00 0.00 72 1017.6
20260505023044 58 0 0.0 0.0 0.00 0.00 0.00 72 1017.5
20260505022530 58 0 0.0 0.0 0.00 0.00 0.00 70 1017.5
20260505022030 58 0 0.0 0.0 0.00 0.00 0.00 70 1017.5
20260505021543 59 0 0.0 0.0 0.00 0.00 0.00 69 1017.4
20260505021030 59 0 0.0 0.0 0.00 0.00 0.00 69 1017.3
20260505020530 59 0 0.0 0.0 0.00 0.00 0.00 68 1017.3
20260505020043 60 0 0.0 0.0 0.00 0.00 0.00 67 1017.3
20260505015530 60 0 0.0 0.0 0.00 0.00 0.00 66 1017.3
20260505015031 60 0 0.0 0.0 0.00 0.00 0.00 66 1017.2
20260505014602 61 0 0.0 0.0 0.00 0.00 0.00 65 1017.1
20260505014030 61 0 0.0 0.0 0.00 0.00 0.00 64 1017.1
20260505013532 62 0 0.0 0.0 0.00 0.00 0.00 63 1017.0
20260505013047 62 0 0.0 0.0 0.00 0.00 0.00 61 1016.8
20260505012530 62 0 0.0 0.0 0.00 0.00 0.00 60 1016.7
20260505012030 63 0 0.0 0.0 0.00 0.00 0.00 59 1016.9
20260505011543 63 0 0.0 0.0 0.00 0.00 0.00 58 1017.0
20260505011030 64 0 0.0 0.0 0.00 0.00 0.00 58 1016.9
20260505010530 65 0 0.0 0.0 0.00 0.00 0.00 56 1016.8
20260505010054 65 0 0.0 0.0 0.00 0.00 0.00 54 1016.6
20260505005531 66 0 0.0 0.0 0.00 0.00 0.00 53 1016.6
20260505005031 66 0 0.0 2.0 0.00 0.00 0.00 52 1016.6
20260505004548 67 0 0.0 2.0 0.00 0.00 0.00 51 1016.5
20260505004030 67 0 0.0 0.0 0.00 0.00 0.00 50 1016.6
20260505003529 68 0 0.0 0.0 0.00 0.00 0.00 49 1016.5
20260505003054 68 0 0.0 0.0 0.00 0.00 0.00 47 1016.6
20260505002530 69 0 0.0 0.0 0.00 0.00 0.00 48 1016.5
20260505002030 69 0 0.0 0.0 0.00 0.00 0.00 45 1016.5
20260505001541 70 0 0.0 0.0 0.00 0.00 0.00 45 1016.5
20260505001032 70 0 0.0 0.0 0.00 0.00 0.00 44 1016.5
20260505000530 71 0 0.0 0.0 0.00 0.00 0.00 44 1016.5
20260505000040 71 0 0.0 0.0 0.00 0.00 0.00 42 1016.5
20260504235530 72 0 0.0 1.0 0.00 0.00 0.00 42 1016.5
20260504235031 72 0 0.0 3.0 0.00 0.00 0.00 39 1016.4
20260504234536 73 0 0.0 4.0 0.00 0.00 0.00 37 1016.5
20260504234030 73 0 1.0 4.0 0.00 0.00 0.00 37 1016.4
20260504233530 73 0 0.0 3.0 0.00 0.00 0.00 37 1016.5
20260504233045 74 0 0.0 3.0 0.00 0.00 0.00 35 1016.6
20260504232530 74 0 0.0 3.0 0.00 0.00 0.00 34 1016.6
20260504232029 74 0 0.0 6.0 0.00 0.00 0.00 33 1016.5
20260504231539 74 0 0.0 6.0 0.00 0.00 0.00 33 1016.5
20260504231029 74 0 1.0 5.0 0.00 0.00 0.00 33 1016.5
20260504230530 75 0 0.0 3.0 0.00 0.00 0.00 32 1016.5
20260504230110 75 221 0.0 7.0 0.00 0.00 0.00 33 1016.4
20260504225530 75 0 1.0 7.0 0.00 0.00 0.00 31 1016.3
20260504225029 76 250 2.0 6.0 0.00 0.00 0.00 31 1016.3
20260504224545 76 262 0.0 5.0 0.00 0.00 0.00 31 1016.3
20260504224030 76 300 1.0 5.0 0.00 0.00 0.00 30 1016.4
20260504223530 76 0 0.0 3.0 0.00 0.00 0.00 30 1016.4
20260504223056 76 238 0.0 4.0 0.00 0.00 0.00 30 1016.5
20260504222530 76 0 1.0 6.0 0.00 0.00 0.00 30 1016.4
20260504222030 77 258 1.0 9.0 0.00 0.00 0.00 32 1016.3
20260504221542 77 255 3.0 9.0 0.00 0.00 0.00 32 1016.5
20260504221030 77 267 1.0 6.0 0.00 0.00 0.00 32 1016.5
20260504220530 77 0 0.0 7.0 0.00 0.00 0.00 33 1016.6
20260504220042 77 248 1.0 7.0 0.00 0.00 0.00 33 1016.5
20260504215531 77 0 0.0 2.0 0.00 0.00 0.00 32 1016.4
20260504215034 77 0 0.0 1.0 0.00 0.00 0.00 31 1016.5
20260504214541 77 0 0.0 4.0 0.00 0.00 0.00 30 1016.4
20260504214033 77 247 0.0 4.0 0.00 0.00 0.00 28 1016.4
20260504213530 78 219 1.0 4.0 0.00 0.00 0.00 27 1016.5
20260504213038 78 215 0.0 3.0 0.00 0.00 0.00 27 1016.4
20260504212531 77 0 0.0 4.0 0.00 0.00 0.00 27 1016.4
20260504212031 77 300 0.0 4.0 0.00 0.00 0.00 29 1016.4
20260504211604 77 0 0.0 3.0 0.00 0.00 0.00 28 1016.4
20260504211031 77 0 0.0 8.0 0.00 0.00 0.00 29 1016.3
20260504210533 77 240 2.0 8.0 0.00 0.00 0.00 27 1016.5
20260504210046 77 0 1.0 4.0 0.00 0.00 0.00 25 1016.5
20260504205530 78 0 1.0 5.0 0.00 0.00 0.00 27 1016.5
20260504205032 78 234 0.0 6.0 0.00 0.00 0.00 27 1016.4
20260504204542 78 266 2.0 6.0 0.00 0.00 0.00 25 1016.5
20260504204031 79 276 0.0 4.0 0.00 0.00 0.00 28 1016.5
20260504203531 78 319 1.0 7.0 0.00 0.00 0.00 28 1016.6
20260504203044 79 190 2.0 7.0 0.00 0.00 0.00 28 1016.8
20260504202530 78 0 3.0 8.0 0.00 0.00 0.00 28 1016.9
20260504202030 79 190 2.0 8.0 0.00 0.00 0.00 28 1016.8
20260504201542 79 200 1.0 3.0 0.00 0.00 0.00 31 1016.8
20260504201030 79 0 0.0 4.0 0.00 0.00 0.00 30 1016.8
20260504200530 79 329 0.0 4.0 0.00 0.00 0.00 28 1016.8
20260504200039 79 222 0.0 9.0 0.00 0.00 0.00 30 1016.9
20260504195531 79 29 1.0 9.0 0.00 0.00 0.00 31 1016.8
20260504195030 79 231 1.0 7.0 0.00 0.00 0.00 29 1016.9
20260504194549 79 0 0.0 4.0 0.00 0.00 0.00 30 1017.0